Weather in Orvieto

Italy     42°43′04″N   12°06′13″E
temp.,
°C
wind,
m/s
gust,
m/s
humid.,
%
clouds,
%
prec.,
mm/h
press.,
hPa
HPBL,
m
13 june, sun
sun1323:00+19nw225774 0.0 101811
02:00+17n116022 0.0 101811
05:00+16nnw11697 0.0 101811
08:00+21nne01545 0.0 1019131
11:00+27wnw12355 0.0 10181139
14:00+30nne12294 0.0 10172222
17:00+30w133025 0.0 10162516
20:00+23wsw23590 0.0 101766
14 june, mon
mon1423:00+19wnw11700 0.0 101811
02:00+17nnw11720 0.0 101811
05:00+16nnw22720 0.0 101711
08:00+21nne12660 0.0 1018192
11:00+26nne22510 0.0 1017912
14:00+29nne344259 0.0 10152209
17:00+25ene135782 0.0 1014119
20:00+24nnw116615 0.0 101515
15 june, tue
tue1523:00+20nne22760 0.0 101619
02:00+17n22770 0.0 101719
05:00+15nne22790 0.0 101715
08:00+19ne22625 0.0 1017207
11:00+25ne22440 0.0 1017865
14:00+29ne23345 0.0 10161683
17:00+24wsw466191 0.0 1016499
20:00+22ssw35706 0.0 1016190
16 june, wed
wed1623:00+17sw228780 0.0 101815
02:00+16wsw1188100 0.0 101711
05:00+16nne1189100 0.0 101711
08:00+20se1172100 0.0 1017192
11:00+26ssw225484 0.3 10161001
14:00+28sw114493 1.2 10152093
17:00+27sw554937 0.1 1014730
20:00+20e2279100 0.6 101678
17 june, thu
thu1723:00+17nnw0097100 0.2 101711
02:00+17ene1195100 0.2 101611
05:00+16ese119688 0.0 101711
08:00+19ese1283100 0.0 1017194
11:00+26s2348100 0.0 10171194
14:00+29sw33395 0.0 10161932
17:00+28sw644014 0.0 10151306
20:00+21sw4962100 0.0 1016387